Location: Eichelberg
(49.1882°N, 8.8140°E)
Time: 06:02:20
(UTC+00:00)

Daily predictions for brighter satellites

Satellite Brightness Start Highest point End
(mag) Time Altitude Azimuth Time Altitude Azimuth Time Altitude Azimuth
Meteor 2-14 Rocket 4.5 18:50:21 10° N 18:56:30 79° E 19:02:39 10° SSE
ERS-1 Rocket 3.4 18:55:59 10° SE 19:00:44 46° ENE 19:05:32 10° N
NOSS 0 Rocket 4.3 18:54:35 10° SW 19:00:49 73° WNW 19:07:04 10° NNE
COSMOS 2428 4.0 18:56:01 10° SW 19:01:33 48° NW 19:07:07 10° NNE
Cosmos 2292 Rocket 4.4 18:58:54 10° N 19:02:41 28° ENE 19:05:48 10° SE
NOSS 2-1 (E) 3.1 18:59:35 10° NW 19:02:54 77° NE 19:07:06 10° SE
Cosmos 1674 Rocket 4.1 18:59:00 10° N 19:03:05 39° ENE 19:07:10 10° SE
BREEZE-M DEB (TANK) 1.8 19:00:52 10° W 19:03:11 80° N 19:05:55 10° E
Cosmos 2341 Rocket 4.1 18:56:57 10° S 19:03:13 88° ESE 19:09:37 10° N
CSL-04 Debris 4.2 18:58:47 10° SSE 19:04:09 81° ENE 19:09:35 10° NNW
Cosmos 2366 rocket 4.0 19:01:40 10° S 19:07:49 89° E 19:13:59 10° N
NOSS 2-1 (C) 3.2 19:05:34 10° NW 19:08:53 83° SW 19:13:10 10° SE
Cosmos 44 4.0 19:06:08 10° S 19:10:42 35° ESE 19:15:29 10° NE
Okean-O 3.9 19:07:35 10° ESE 19:11:08 25° ENE 19:14:41 10° N
Cosmos 1727 Rocket 4.2 19:06:33 10° N 19:12:50 59° ENE 19:19:02 10° SSE
MetOp-B 4.4 19:08:57 10° SE 19:14:09 55° ENE 19:19:24 10° N
Cosmos 1378 Rocket 3.5 19:10:53 10° N 19:15:17 74° E 19:19:37 10° SSE
SL-16 R/B 2.8 19:11:51 10° S 19:16:57 36° ESE 19:22:04 10° NE
Okean O Rocket 2.6 19:15:51 10° SE 19:19:37 29° ENE 19:23:22 10° N
CZ-4 R/B 1.4 19:20:55 10° S 19:24:38 73° WSW 19:28:20 10° NNW
ATLAS 5 CENTAUR R/B 3.7 19:25:10 10° N 19:27:19 14° NNE 19:29:39 10° ENE
Spot 2 Rocket 4.1 19:23:16 11° SE 19:27:47 40° ENE 19:32:28 10° N
NOSS 3-1 (C) 4.2 19:21:31 10° NW 19:28:08 60° NE 19:35:43 13° ESE
SPOT 5 3.6 19:24:01 10° S 19:28:22 49° W 19:32:37 10° NNW
NOSS 3-4 (A) 3.9 19:25:01 10° WSW 19:30:16 58° NW 19:36:10 10° NE
NOSS 3-4 (C) 3.9 19:25:31 10° WSW 19:30:48 58° NW 19:36:44 10° NE
Cosmos 1656 Rocket 3.7 19:26:08 10° NNW 19:31:37 83° WSW 19:37:09 10° SSE
Cosmos 1025 Rocket 3.0 19:27:46 10° N 19:32:01 64° ENE 19:36:16 10° SSE
Helios 1A Rocket 2.2 19:29:28 10° NNE 19:32:42 87° ESE 19:35:53 10° SSW
Cosmos 2242 Rocket 4.4 19:31:46 10° NNW 19:36:07 54° W 19:40:23 10° S
PAYLOAD B 4.3 19:30:48 10° SSE 19:36:17 86° WSW 19:41:50 10° NNW
Cosmos 1733 Rocket 3.5 19:32:22 10° SSW 19:36:43 64° WNW 19:41:07 10° N
Terra 1.8 19:32:50 10° SSE 19:37:31 82° ENE 19:42:14 10° NNW
BREEZE-M DEB (TANK) 2.3 19:36:28 10° W 19:39:06 75° SSW 19:43:54 14° ESE
Meteor 2-8 Rocket 4.4 19:33:23 10° S 19:39:22 65° E 19:45:21 10° NNE
Cosmos 2123 Rocket 4.2 19:35:19 10° N 19:41:30 55° ENE 19:47:09 13° SSE
Cosmos 2239 Rocket 4.5 19:36:03 10° S 19:42:12 70° E 19:48:26 10° NNE
Gblst 52 Del rocket 4.4 19:37:10 10° WSW 19:43:05 75° SSE 19:49:56 10° ENE
Cosmos 1821 Rocket 4.3 19:37:04 10° SSW 19:43:21 77° W 19:49:46 10° N
Cosmos 2237 Rocket 3.3 19:39:18 10° SW 19:44:50 50° NW 19:50:24 10° NNE
Cosmos 2150 Rocket 4.1 19:44:58 10° S 19:49:58 54° ESE 19:55:04 10° NNE
Cosmos 1300 Rocket 4.2 19:48:13 17° SSE 19:51:02 35° E 19:54:56 10° NNE
Cosmos 1346 Rocket 2.8 19:48:13 10° NNW 19:51:48 69° W 19:55:10 11° S
BREEZE-M DEB (TANK) 2.5 19:50:40 10° W 19:53:04 82° N 19:58:00 10° E
COSMOS 2455 3.9 19:48:16 10° NNW 19:53:44 34° NE 19:58:10 14° E
Cosmos 1400 Rocket 4.1 19:54:57 10° SW 19:58:20 37° WNW 20:01:45 10° N
SL-4 R/B 3.2 19:55:26 10° S 19:57:34 20° SSE 19:57:34 20° SSE
BREEZE-M DEB (TANK) 4.2 19:54:27 10° SSW 19:58:46 45° SE 20:13:31 10° ENE
Cosmos 1602 2.3 19:56:36 10° N 19:58:53 82° W 19:59:39 37° S
Cosmos 1812 3.9 19:58:11 10° WSW 19:59:21 16° WNW 20:00:32 10° NNW
SJ 16-02 3.5 19:59:58 10° NNE 20:02:01 13° NE 20:04:03 10° ENE
USA 59 Rocket 1.8 20:00:57 10° WNW 20:03:47 21° WSW 20:07:16 10° S
ASTEX 1 3.3 19:59:48 14° SSE 20:04:00 76° E 20:08:57 10° N
SWAS 4.4 20:00:16 10° NNW 20:04:18 61° ENE 20:06:21 27° SE
Gbstr 26 Del rocket 4.1 20:01:10 10° SSW 20:05:27 26° SE 20:06:31 24° ESE
Cosmos 2297 3.7 20:01:05 10° NNW 20:06:53 81° ENE 20:10:44 22° SSE
Cosmos 1869 3.0 20:06:01 23° SSE 20:08:02 57° E 20:11:34 10° NNE
Cosmos 1315 Rocket 3.4 20:08:55 29° ESE 20:09:39 31° E 20:13:00 10° NNE
SPOT 3 Rocket 3.9 20:08:17 23° SE 20:11:13 49° ENE 20:16:12 10° N
Cosmos 2369 Rocket 2.2 20:05:37 10° NNW 20:11:14 86° WSW 20:14:59 22° SSE
ADEOS 4.1 20:06:50 10° S 20:11:56 57° WSW 20:17:05 10° NNW
SL-08 R/B 3.4 20:08:59 10° NNE 20:13:56 85° WNW 20:18:49 10° SSW
USA 186 0.8 20:14:08 66° SSW 20:14:21 76° WSW 20:16:43 10° NNW
Lacrosse 5 rocket 2.5 20:15:00 10° NW 20:17:43 25° NNE 20:19:32 16° ENE
USA 234 3.2 20:12:23 10° ENE 20:18:56 69° SE 20:25:28 10° SW
Cosmos 2221 Rocket 4.0 20:14:51 10° NNW 20:19:12 62° W 20:22:40 16° S
YAOGAN 11 3.9 20:14:58 10° NNE 20:19:15 79° ESE 20:23:05 13° S
Cosmos 2285 Rocket 4.0 20:14:38 10° SSW 20:21:01 86° ESE 20:27:23 10° NNE
Cosmos 405 Rocket 1.9 20:21:05 10° N 20:24:03 74° ENE 20:24:26 61° SE
Cosmos 1943 3.4 20:23:24 15° S 20:27:52 48° ESE 20:33:18 10° NE
NOSS 3-1 (A) 4.2 20:21:09 10° NW 20:27:55 64° NE 20:33:20 24° ESE
CZ-4B R/B 2.5 20:27:34 47° SE 20:28:20 63° ENE 20:31:42 10° N
Cosmos 921 Rocket 3.5 20:24:27 10° N 20:28:44 47° ENE 20:30:06 34° ESE
Molniya-1 3.5 20:26:06 10° SW 20:28:52 82° NW 20:35:26 10° NE
CZ-4B R/B 4.4 20:24:26 10° SSW 20:29:42 41° W 20:35:03 10° NNW
Cosmos 1023 Rocket 4.4 20:26:09 10° NNW 20:31:16 81° ENE 20:33:36 33° SSE
SL-8 R/B 3.5 20:28:37 10° WSW 20:33:20 74° S 20:36:05 25° E
IRS-1C Rocket 4.2 20:31:47 31° SE 20:34:13 62° ENE 20:39:27 10° N
Cosmos 1975 Rocket 3.1 20:30:04 10° N 20:34:30 66° ENE 20:35:59 39° SE
Helios 1B rocket 4.5 20:35:11 11° ENE 20:35:23 11° ENE 20:36:23 10° NE
Cosmos 1356 Rocket 3.6 20:36:35 44° ESE 20:37:07 47° E 20:40:59 10° NNE
Cosmos 2263 4.4 20:36:44 10° NNW 20:42:21 67° WSW 20:45:15 29° S
CZ-2C R/B 2.4 20:44:39 53° NNE 20:44:39 53° NNE 20:47:07 10° N
Cosmos 304 Rocket 4.3 20:41:19 10° NNW 20:45:54 44° ENE 20:47:13 35° ESE
Okean-O 3.6 20:44:32 20° SSW 20:47:12 42° W 20:51:22 10° NNW
Cosmos 44 4.4 20:46:44 10° WSW 20:51:42 49° NW 20:56:55 10° NNE
Okean O Rocket 3.0 20:53:05 18° SSW 20:55:43 33° W 20:59:40 10° NNW
CZ-4B R/B 3.3 20:55:25 39° S 20:57:10 77° WSW 21:01:56 10° NNW
Ariane Rocket 2.9 20:57:13 41° SSE 20:59:02 86° WSW 21:04:07 10° NNW
ATLAS 3B R/B 4.5 20:53:22 10° NW 21:00:16 31° NNE 21:06:57 10° ENE
SL-16 R/B 3.3 20:55:31 10° SW 21:00:55 45° NW 21:06:24 10° NNE
Cosmos 1782 Rocket 4.1 20:58:38 22° SSW 21:01:14 55° WNW 21:05:29 10° N
Cosmos 1269 Rocket 4.3 21:03:21 10° NNW 21:08:33 61° WSW 21:10:20 39° S
Cosmos 546 4.5 21:06:15 10° WNW 21:09:51 78° N 21:09:51 78° N
ATLAS 5 CENTAUR R/B 2.1 21:06:13 10° NNW 21:10:06 49° NE 21:11:03 42° E
Cosmos 1140 Rocket 3.9 21:06:05 10° NNW 21:11:04 52° WSW 21:12:46 36° SSW
Terra 4.4 21:13:18 10° WSW 21:15:39 14° W 21:18:00 10° WNW
Cosmos 1818 4.0 21:16:19 10° NNW 21:21:41 54° NE 21:23:15 40° E
Cosmos 1862 3.9 21:19:26 10° NNW 21:22:51 42° W 21:22:56 42° W
Cosmos 1153 Rocket 4.4 21:22:57 42° S 21:25:13 82° E 21:31:32 10° N
Cosmos 2058 3.4 21:23:29 10° NNW 21:27:14 46° W 21:27:31 45° WSW
Meteor 2-17 Rocket 4.4 21:21:24 10° N 21:27:35 86° W 21:29:29 47° S
Cosmos 1459 Rocket 4.2 21:26:51 46° SE 21:28:05 53° E 21:34:11 10° NNE
Cosmos 407 Rocket 3.4 21:22:58 10° NNW 21:28:06 76° WSW 21:28:57 60° S
Cosmos 371 Rocket 3.1 21:27:57 10° NNW 21:32:49 83° WSW 21:33:16 73° S
ARIANE 5 R/B 4.2 21:32:43 23° ENE 21:32:49 23° ENE 21:36:15 10° N
ATLAS 2AS CENTAUR R/B 3.9 21:38:07 24° E 21:38:07 24° E 21:42:05 10° ENE
Meteor 2-1 Rocket 4.4 21:37:34 51° ESE 21:38:04 53° E 21:43:40 10° NNE
ARIANE 6 FM1 Upper Stage 4.3 21:35:48 10° NNW 21:39:11 25° NNE 21:40:03 23° NE
COSMOS 2455 3.0 21:34:06 10° NW 21:40:03 64° WSW 21:41:17 52° S
SJ 16-02 1.3 21:36:31 10° NNW 21:40:32 77° N 21:40:32 77° N
Cosmos 1802 Rocket 4.2 21:40:52 47° ESE 21:41:42 50° E 21:47:42 10° NNE
Cosmos 2251 Rocket 3.5 21:37:27 10° NNW 21:42:49 73° ENE 21:43:27 65° ESE
Cosmos 1536 Rocket 3.5 21:41:27 10° N 21:45:30 78° NNW 21:45:30 78° NNW
Cosmos 1816 Rocket 4.3 21:46:19 10° N 21:52:30 78° E 21:53:36 61° SSE
Cosmos 2369 Rocket 4.4 21:51:23 10° WNW 21:54:22 15° W 21:56:46 11° SW
Lacrosse 5 rocket 2.9 21:51:27 10° NW 21:52:47 23° WNW 21:52:47 23° WNW
Cosmos 2016 Rocket 4.2 21:55:13 51° ESE 21:55:56 54° E 22:02:05 10° NNE
SeaSat 1 2.7 21:56:42 53° ENE 21:57:08 55° NE 22:01:56 10° NNW
USA 234 3.8 21:55:30 10° ENE 22:01:54 58° NNW 22:08:18 10° W
Cosmos 1697 Rocket 3.5 21:58:53 10° NNW 22:04:14 41° NE 22:05:24 37° E
Cosmos 2173 Rocket 3.9 22:03:21 58° SSW 22:04:38 83° W 22:10:48 10° N
Helios 1B rocket 3.5 22:09:10 36° NNW 22:09:10 36° NNW 22:11:23 10° NNW
Cosmos 1892 Rocket 4.1 22:05:22 10° N 22:09:00 51° NE 22:09:00 51° NE
Cosmos 1603 3.9 22:07:59 41° SW 22:09:54 66° WNW 22:15:36 10° NNE
YAOGAN 20A 4.5 22:12:03 74° SE 22:12:05 74° SE 22:18:14 10° NE
Meteor 2-3 Rocket 3.7 22:07:57 10° NNW 22:13:32 68° W 22:14:03 64° SW
Cosmos 2151 Rocket 4.2 22:17:04 49° WNW 22:17:04 49° WNW 22:21:13 10° N
Okean 1 Rocket 3.5 22:17:47 60° NNW 22:17:47 60° NNW 22:21:29 10° N
Helios 1A 3.8 22:18:49 10° N 22:22:03 44° NW 22:22:03 44° NW
Cosmos 1371 Rocket 4.1 22:23:18 64° ENE 22:23:18 64° ENE 22:28:02 10° NNE
Okean 2 Rocket 3.6 22:24:29 54° NW 22:24:29 54° NW 22:28:31 10° N
Cosmos 1980 Rocket 3.6 22:19:41 10° NNW 22:24:44 31° NE 22:26:39 25° E
Cosmos 968 Rocket 3.7 22:22:04 10° NNW 22:27:16 62° ENE 22:27:16 62° ENE
Cosmos 1190 Rocket 4.4 22:22:28 10° NNW 22:27:28 54° W 22:27:28 54° W
Cosmos 1455 Rocket 3.8 22:28:48 50° NNE 22:28:48 50° NNE 22:32:10 10° NNE
Cosmos 2100 Rocket 4.4 22:26:44 43° SW 22:28:24 56° WNW 22:34:31 10° N
CZ-2C R/B 4.4 22:26:10 10° NNE 22:29:25 47° NE 22:29:25 47° NE
Tsikada Rocket 3.8 22:25:14 10° N 22:31:33 81° E 22:32:10 72° SE
Cosmos 2061 Rocket 3.9 22:35:46 66° ESE 22:36:06 68° E 22:42:16 10° NNE
Cosmos 972 Rocket 4.5 22:35:51 65° SW 22:36:51 84° WNW 22:43:44 10° NNE
Meteor 1-27 4.1 22:40:55 83° ESE 22:40:59 84° E 22:46:44 10° NNE
Cosmos 1656 4.3 22:39:35 10° NW 22:44:20 41° W 22:44:20 41° W
Cosmos 332 Rocket 4.4 22:46:18 10° NNW 22:50:07 49° WNW 22:50:07 49° WNW
ATLAS 5 CENTAUR R/B 3.5 22:48:20 10° WNW 22:50:10 21° W 22:50:10 21° W
ATLAS 3B R/B 3.2 22:44:43 10° NW 22:52:33 64° NE 22:55:41 37° ESE
Aureole 3 Rocket 3.6 22:58:44 76° ENE 22:58:44 76° ENE 23:04:58 10° NNE
Cosmos 1833 Rocket 2.6 23:01:17 77° ENE 23:01:17 77° ENE 23:06:34 10° NNE
Cosmos 2082 Rocket 4.0 23:02:51 19° E 23:02:51 19° E 23:05:59 10° NE
ALOS 2 3.5 23:03:31 46° NW 23:03:31 46° NW 23:06:46 10° NNW
BREEZE-M R/B 4.3 22:56:15 10° W 23:04:47 80° N 23:10:29 10° E
ARIANE 5 R/B 3.8 23:10:04 35° WNW 23:10:04 35° WNW 23:13:04 10° NNW
CZ-2C R/B 3.6 23:04:36 10° NNE 23:09:16 51° ENE 23:09:16 51° ENE
DEBRIS 4.5 23:14:39 32° W 23:17:19 90° NW 23:36:04 10° E
Cosmos 2228 4.2 23:18:31 39° NNW 23:18:31 39° NNW 23:21:27 10° N
SJ 16-02 4.0 23:17:01 10° WNW 23:17:01 10° WNW 23:17:01 10° WNW
USA 229 DEB 3.9 23:11:17 10° NW 23:18:46 83° SW 23:20:33 59° SSE
USA 229 3.9 23:11:20 10° NW 23:18:50 84° SW 23:20:39 58° SSE
Cosmos 2233 Rocket 4.3 23:18:32 50° WSW 23:19:27 54° WNW 23:25:35 10° N
Cosmos 1850 Rocket 4.2 23:15:40 10° NNW 23:20:06 63° NW 23:20:06 63° NW
Cosmos 2056 Rocket 4.4 23:20:45 39° W 23:21:35 42° WNW 23:26:44 10° NNE
SL-16 R/B 4.2 23:18:40 10° N 23:23:09 23° NE 23:27:37 10° E
ATLAS 2AS CENTAUR R/B 2.6 23:25:29 60° SW 23:26:52 82° NW 23:33:44 10° NE
Cosmos 1331 Rocket 4.1 23:27:28 74° N 23:27:28 74° N 23:32:18 10° NNE
CZ-2C R/B 2.6 23:29:07 78° ENE 23:29:07 78° ENE 23:34:31 10° NNW
SeaSat 1 4.1 23:36:18 22° W 23:36:18 22° W 23:38:52 10° NW
Cosmos 2098 Rocket 3.9 23:36:56 61° E 23:36:56 61° E 23:42:19 10° NNE
Nadezhda 4 Rocket 3.8 23:36:26 10° N 23:42:37 80° E 23:43:04 75° SE
Timation 1 Rocket 4.2 23:42:54 84° SE 23:42:58 84° ESE 23:49:02 10° NNE
ACS3 Solar Sail 2.9 23:38:35 10° NNE 23:43:55 31° E 23:44:42 30° ESE
USA 234 4.3 23:38:11 10° ENE 23:44:19 45° N 23:50:29 10° WNW
Cosmos 1110 Rocket 4.3 23:44:35 59° WNW 23:44:35 59° WNW 23:49:48 10° NNE
Meteor 1-25 Rocket 4.1 23:39:00 10° NNW 23:44:51 90° W 23:44:52 89° SSW
Cosmos 1697 Rocket 3.6 23:42:58 10° NW 23:47:06 35° W 23:47:06 35° W
Cosmos 2151 4.4 23:50:11 10° NNW 23:52:40 32° NW 23:52:40 32° NW
Cosmos 1606 Rocket 4.5 23:55:25 45° NE 23:55:25 45° NE 23:58:45 10° NNE
